Theta_e
317 306 307 304 304 307 309 308 309 309 309 308 306 304 304 304 305 309 309 312 314 309 307 309 308 308 309 311 313 315 316 316 315 316 315 316 317 318 318 319 321 321 320 322 321 322 322 321 323 324 323 322 324 326 327 325 325 326 325 327 327 330 330 328 326 326 322 326 322 321 322 323 324 321 321 322 323 324 326 323 321 325 326 323 324 323
313 304 305 306 307 307 307 309 311 309 309 307 307 306 304 305 304 308 309 312 315 310 306 310 308 308 309 311 313 315 315 314 314 315 316 316 317 319 318 318 320 320 320 320 319 320 321 321 321 322 324 324 323 324 324 325 325 326 326 327 327 330 330 329 327 323 325 323 321 321 317 317 319 319 318 320 328 327 322 326 328 334 332 330 325 325
305 303 305 308 309 310 309 311 310 309 306 307 306 306 305 304 307 310 311 312 312 311 305 308 307 308 309 310 313 313 314 315 316 316 317 317 317 318 319 318 319 318 318 319 319 319 320 320 320 320 323 321 320 321 322 322 325 326 326 326 326 330 326 324 326 325 325 327 326 325 323 317 318 323 325 324 324 322 320 325 326 323 323 321 320 322
301 304 308 311 310 308 309 311 309 308 308 306 306 305 300 303 304 300 308 310 310 310 306 310 305 307 311 312 313 314 314 315 317 318 318 320 318 318 319 319 318 317 317 317 318 320 320 318 319 319 318 322 322 321 320 322 324 323 325 326 327 327 326 325 324 325 327 327 327 326 327 330 325 321 323 325 323 323 323 322 327 328 328 323 320 320
303 306 310 309 309 307 307 308 306 306 303 306 305 305 303 304 305 306 304 311 310 310 311 307 304 305 306 307 309 312 316 317 317 319 318 320 322 321 321 320 320 317 318 317 318 319 319 319 319 318 318 320 320 319 319 321 321 320 322 325 326 326 326 325 326 328 330 329 328 330 328 326 326 329 328 319 319 323 325 328 325 322 323 324 322 324
305 309 310 309 308 308 306 305 306 306 302 304 306 305 306 307 306 307 307 308 304 303 309 306 296 297 305 308 308 310 313 313 316 316 316 318 319 320 319 319 320 319 319 319 318 319 320 319 320 319 320 321 318 319 319 319 320 322 322 322 325 326 327 327 328 330 330 328 330 326 328 319 318 319 323 324 323 319 319 319 328 325 323 322 323 322
306 310 309 306 307 307 308 305 307 306 303 301 303 310 308 309 308 307 306 306 299 297 304 310 298 293 304 304 308 310 310 311 313 314 316 318 317 319 319 319 318 317 318 320 319 319 319 319 319 320 319 319 318 318 319 319 322 321 321 323 324 326 327 326 328 329 331 329 324 321 319 319 319 320 321 327 329 327 322 329 327 326 328 322 323 324
308 308 308 308 306 306 306 303 306 307 304 301 308 309 308 307 306 307 307 305 302 307 307 308 304 297 297 303 309 309 309 309 310 312 313 315 315 317 319 319 318 317 318 319 318 319 320 320 319 318 318 319 319 320 318 321 322 323 322 323 324 326 327 326 326 325 327 322 322 321 320 321 319 321 321 322 325 329 329 328 329 327 325 324 325 325
307 306 307 306 306 305 304 306 309 308 304 303 308 309 310 309 311 310 308 304 305 303 299 303 305 298 298 303 308 309 305 306 308 309 311 313 314 315 318 318 318 319 319 319 318 319 319 320 320 318 317 319 320 319 321 320 322 323 323 324 324 325 327 330 327 323 323 326 325 324 322 321 321 321 323 325 325 327 329 327 328 326 329 327 328 326
308 307 308 307 306 303 306 308 309 309 305 308 310 312 311 310 308 309 306 304 303 300 295 300 303 295 296 303 303 307 305 305 307 309 311 313 314 315 316 320 319 318 319 319 320 320 320 321 320 319 318 319 320 322 324 323 322 323 324 324 324 324 326 325 326 326 324 324 326 324 326 323 323 323 323 322 325 325 328 324 326 325 326 330 327 328
309 313 312 308 308 308 309 310 310 310 309 310 311 308 307 308 308 306 306 304 301 292 296 302 303 300 293 300 303 302 304 307 308 310 311 313 314 316 317 319 320 318 318 319 320 320 320 322 320 318 318 320 322 322 323 323 320 323 324 324 324 325 325 326 325 325 325 325 325 323 323 323 321 320 323 323 324 327 326 325 323 327 331 329 325 329
309 310 309 310 311 311 310 308 311 311 311 310 307 305 305 304 306 304 304 304 294 291 299 303 303 303 292 297 304 308 311 310 310 309 310 311 313 314 316 318 318 319 318 321 320 320 320 321 319 318 318 320 321 322 322 323 321 323 324 325 324 325 326 326 326 326 326 325 325 325 325 322 323 322 319 321 318 318 318 324 325 329 330 326 327 328
304 306 309 311 314 309 309 308 308 310 310 309 306 304 298 294 296 292 297 291 292 292 299 303 303 299 298 303 306 308 309 311 312 313 312 312 313 315 316 318 318 320 319 320 320 320 320 318 318 318 318 319 319 321 320 322 322 323 324 325 324 324 326 326 327 326 326 325 325 327 330 326 324 323 323 320 325 323 324 326 326 326 325 326 325 327
301 307 307 309 310 311 310 304 303 302 309 306 304 301 296 290 289 286 290 293 293 298 302 303 304 298 302 305 309 310 310 313 313 315 315 314 315 315 315 317 317 319 319 320 320 321 319 319 318 318 318 317 318 320 320 322 323 323 324 325 324 324 326 327 327 326 327 327 327 327 328 327 330 325 331 328 326 325 326 329 324 326 325 326 325 325
292 296 303 306 308 311 308 306 306 304 305 306 308 304 299 297 292 286 290 285 290 293 300 304 299 295 295 299 311 311 313 315 315 315 316 317 317 318 317 317 318 319 319 319 321 321 320 320 320 319 319 318 317 320 320 321 321 322 321 324 325 324 326 327 327 328 326 327 328 329 324 329 333 324 335 335 327 328 325 327 328 325 326 327 327 324
299 297 304 309 310 310 307 311 310 308 306 307 308 308 301 299 302 293 296 295 295 295 293 298 296 301 301 307 311 314 313 314 317 315 316 314 316 317 317 316 317 319 319 320 321 321 321 322 322 321 321 319 318 321 321 319 320 323 321 323 325 325 326 327 327 327 329 328 328 329 332 330 332 330 329 336 330 331 332 330 327 327 328 329 325 324
299 297 305 308 309 308 311 310 309 310 295 304 305 300 301 307 304 297 298 302 301 293 291 296 299 303 306 307 309 310 311 311 313 314 315 314 316 316 316 316 317 319 320 320 320 321 322 321 322 320 321 319 319 319 319 321 321 323 324 323 325 325 325 327 326 328 328 330 329 327 329 330 327 331 329 334 330 329 332 336 335 330 327 327 326 322
297 297 305 304 304 308 313 310 312 310 309 306 301 303 308 310 306 300 292 293 293 289 291 298 294 296 299 292 307 308 308 307 310 312 313 313 314 314 315 317 317 318 319 320 322 322 323 322 321 321 320 320 320 320 320 323 323 325 324 322 323 325 324 325 326 326 327 327 327 327 328 329 331 329 328 330 330 331 330 332 331 330 329 325 323 321
304 296 302 306 306 309 310 309 307 311 310 305 304 309 301 296 297 301 296 288 288 287 289 295 297 297 298 298 304 304 306 309 310 312 313 312 313 314 315 316 318 319 320 320 320 321 322 322 322 322 322 321 321 322 320 320 322 321 324 322 324 325 326 327 326 327 328 328 327 326 328 328 328 329 329 328 328 330 330 329 329 327 325 323 322 321
306 295 298 306 305 308 308 306 298 304 309 310 310 305 309 305 300 297 298 297 298 288 288 290 295 292 302 302 305 306 308 309 309 311 312 312 316 315 315 315 316 317 320 321 320 321 322 323 323 323 322 321 320 319 320 321 321 323 324 324 325 327 327 327 326 328 328 325 326 325 327 329 327 327 326 328 329 330 328 325 327 324 324 323 322 320
304 308 292 303 307 307 299 303 301 303 302 304 304 303 304 305 307 303 304 298 297 290 290 289 288 295 303 307 307 307 309 310 312 311 313 314 315 316 316 316 317 317 319 320 320 321 322 324 324 323 324 322 322 320 320 320 322 323 323 324 325 328 326 326 327 327 327 328 326 327 327 328 329 328 328 329 329 330 333 329 327 324 322 320 319 318
301 303 294 301 301 300 302 308 307 306 305 304 303 301 304 300 298 294 292 303 300 296 290 289 288 297 305 310 309 308 310 312 312 314 314 314 315 317 318 320 319 317 321 321 321 321 322 324 324 323 323 322 321 320 319 320 321 321 321 322 324 328 325 326 326 326 327 328 330 329 329 330 331 330 329 329 329 330 329 326 324 322 320 318 318 316
310 308 302 296 300 301 305 308 310 310 309 307 304 304 304 304 303 297 289 295 299 299 300 298 291 295 308 309 310 310 310 312 314 313 315 315 314 315 318 319 322 321 320 322 322 322 323 324 324 323 322 321 320 320 321 321 321 321 321 325 325 324 325 326 326 326 327 328 329 331 331 332 331 330 331 332 333 330 326 324 322 320 318 316 316 315
310 303 300 300 304 305 307 308 310 308 306 304 305 305 304 302 303 301 301 302 296 299 295 294 290 296 309 314 311 310 311 313 314 315 314 314 315 317 318 319 320 321 322 321 323 325 324 324 325 324 321 320 319 320 322 322 322 324 322 324 324 326 326 326 325 326 326 328 329 331 331 331 332 331 327 328 331 327 324 322 321 319 316 315 315 311
298 305 300 295 295 299 300 303 304 307 307 304 305 305 305 306 306 307 304 307 293 298 298 294 288 293 308 312 311 312 311 312 313 315 317 315 321 320 318 319 320 322 322 321 323 324 324 323 322 322 320 320 318 319 322 320 321 321 324 324 324 325 327 326 326 326 326 326 328 329 331 332 331 330 330 332 329 325 323 321 319 318 314 314 313 311
304 302 300 292 289 287 286 288 292 297 300 304 305 304 305 304 304 304 293 298 291 298 299 294 292 302 308 310 309 310 311 312 313 315 316 321 320 318 319 319 321 321 320 321 322 324 323 322 322 321 321 319 319 319 319 322 321 321 323 325 327 326 326 326 327 326 326 326 327 328 330 332 331 330 330 329 326 323 321 319 317 315 314 312 311 312
307 308 304 301 298 295 296 300 305 303 303 299 302 303 303 304 306 306 304 298 294 298 297 299 300 301 302 305 306 309 312 311 312 313 314 318 318 322 323 321 321 323 323 322 323 322 323 323 323 321 322 322 321 321 320 321 320 321 323 325 326 326 327 326 327 326 326 327 327 326 328 329 330 331 331 327 324 322 319 317 316 314 311 311 310 309
307 301 304 305 304 303 304 304 306 305 302 302 302 302 304 304 306 303 297 297 303 298 292 301 304 301 303 305 307 309 311 312 314 315 314 316 318 322 321 322 321 320 322 321 323 322 322 323 323 324 323 323 321 323 321 321 321 321 323 325 325 325 327 327 327 326 326 328 328 328 328 329 332 332 329 326 322 320 319 317 315 314 313 312 310 307
305 296 305 304 303 305 305 305 306 306 304 303 304 303 303 305 304 302 303 304 305 295 294 302 305 302 304 306 309 310 311 313 313 314 316 319 319 320 323 320 320 320 320 320 322 323 322 322 324 325 325 325 326 325 322 320 321 323 325 324 324 325 326 328 327 326 325 327 327 327 328 331 332 330 326 322 321 319 317 316 314 313 312 311 310 308
307 299 305 305 304 303 305 305 305 303 302 302 302 304 304 304 304 304 304 305 305 303 305 304 304 304 306 309 310 311 311 311 316 318 318 318 317 320 319 319 320 318 318 318 322 322 323 323 324 325 327 325 323 323 320 321 321 321 322 324 324 324 326 327 327 325 325 325 326 328 327 330 328 327 324 321 318 317 315 313 313 311 310 308 307 307
305 297 304 304 302 302 305 306 305 304 302 302 304 306 304 306 304 304 303 306 305 302 302 303 303 304 309 314 312 314 314 313 316 315 319 317 316 319 320 317 319 319 319 320 321 323 322 323 323 325 325 326 325 325 323 323 322 321 321 322 323 323 324 325 327 326 325 324 326 327 330 329 327 325 322 319 317 315 313 312 312 310 308 308 307 307
309 300 305 303 294 297 303 304 305 303 303 303 302 304 304 303 304 303 301 305 304 304 304 304 301 302 308 312 314 313 312 311 313 314 316 317 318 321 319 319 319 319 320 321 321 322 323 322 325 325 325 325 325 325 324 325 324 323 322 323 322 324 325 325 326 325 325 325 327 327 331 329 326 323 320 317 315 314 312 312 310 309 308 307 306 306
308 304 299 299 295 295 302 303 303 304 302 299 301 302 303 305 306 305 306 306 306 306 301 297 299 307 310 311 308 311 312 312 312 314 316 315 317 319 319 318 319 320 325 321 321 322 323 323 324 327 328 326 325 324 325 325 325 325 325 324 326 325 325 326 327 325 325 326 326 329 331 326 323 320 318 316 314 314 312 310 309 308 307 306 307 306
307 305 300 305 294 295 302 302 304 298 289 292 306 308 306 308 306 303 303 307 309 306 305 307 308 313 312 312 309 310 312 311 315 319 321 320 320 318 317 319 320 319 321 322 324 322 324 325 327 327 329 327 327 327 327 328 326 327 328 327 326 325 326 325 325 325 325 328 328 330 327 323 321 318 317 316 314 312 311 310 308 308 308 307 306 305
306 305 300 305 296 295 302 302 296 288 291 306 309 311 308 308 307 306 308 307 307 311 309 308 309 310 311 310 312 312 315 314 316 317 319 319 323 319 318 318 320 319 321 325 323 325 327 326 327 327 330 326 326 331 330 326 327 329 327 327 326 326 325 325 324 325 327 328 330 327 324 322 319 317 316 314 313 312 310 309 309 308 307 306 305 304
303 299 298 299 298 299 295 294 287 289 305 309 309 310 310 309 308 307 305 307 308 308 308 308 308 309 312 311 313 315 313 315 313 315 317 319 319 320 319 318 319 320 320 321 321 326 328 325 327 328 330 329 328 327 326 326 327 326 325 326 325 325 325 325 325 324 327 329 328 325 323 321 318 317 315 313 312 311 310 309 308 307 307 306 305 305
308 307 303 295 302 292 294 294 293 303 303 305 305 306 305 305 305 303 296 303 310 311 310 308 309 311 310 312 314 313 315 311 312 313 316 319 317 319 319 319 320 320 323 325 325 326 330 332 328 329 330 328 326 324 325 325 325 325 324 324 324 324 324 325 325 325 329 328 326 323 321 320 318 315 314 313 311 310 310 309 308 307 307 305 305 304
310 304 305 298 295 300 294 293 293 294 289 298 307 309 312 313 311 313 307 301 311 311 311 309 310 311 312 312 312 314 314 310 308 309 317 319 319 319 319 319 320 321 321 322 325 325 329 330 329 332 327 328 328 328 327 329 329 326 327 325 324 324 324 323 324 326 328 327 324 323 321 319 317 315 313 312 311 310 310 309 308 307 307 305 304 303
310 310 307 300 296 296 293 291 290 289 292 304 307 310 312 312 311 316 306 299 309 311 311 312 310 311 312 312 313 315 311 306 306 313 318 320 316 317 317 319 318 321 321 321 322 321 322 327 327 325 328 329 325 326 331 327 327 323 323 325 324 324 323 324 324 326 327 325 324 322 321 318 316 315 313 312 311 311 309 309 308 308 308 306 304 303
307 305 302 296 294 296 294 292 291 294 294 306 309 310 310 312 313 309 294 294 310 312 312 314 312 311 314 314 315 314 310 305 307 312 326 319 317 320 320 317 318 320 320 321 323 326 325 326 323 325 327 326 329 330 329 328 325 326 325 323 323 323 323 324 326 327 327 325 323 322 320 318 317 315 314 312 312 311 310 310 308 307 306 305 303 302
300 298 299 295 296 296 293 294 296 298 308 312 311 313 312 317 311 294 291 300 313 313 314 318 313 315 315 316 315 309 314 316 316 322 321 320 317 314 317 322 319 319 319 320 323 321 324 324 323 322 322 324 328 326 325 324 326 327 326 327 325 324 325 328 329 328 326 324 322 320 318 318 317 315 315 313 312 311 311 309 307 307 306 304 304 302
302 301 298 300 297 296 300 293 294 300 309 313 315 314 315 310 295 294 306 324 319 313 314 315 317 316 317 317 317 315 316 317 318 318 319 320 322 325 319 320 321 323 328 324 323 325 325 321 326 327 323 325 326 325 326 326 326 325 325 327 327 328 329 328 328 326 325 322 320 319 318 317 317 316 315 313 312 310 309 309 308 307 306 304 303 303
300 295 296 296 299 299 299 294 293 289 300 314 315 311 316 301 303 311 315 316 316 315 314 315 316 314 317 318 317 318 319 317 319 319 320 319 319 320 322 324 328 330 329 327 326 324 325 326 325 323 327 327 327 327 327 328 327 328 331 331 336 334 328 328 327 325 323 321 319 319 318 317 317 315 314 313 312 310 309 308 307 306 305 305 304 303
312 297 297 299 305 294 294 291 293 299 312 320 315 302 313 318 321 322 318 313 316 317 316 314 317 317 317 319 319 319 318 317 321 321 321 320 323 323 327 328 326 333 333 330 330 328 328 329 328 331 336 332 334 331 330 331 329 329 331 331 332 329 327 326 324 323 321 320 319 318 317 316 316 315 314 313 311 310 308 307 306 305 304 305 303 301
311 305 307 299 309 299 299 303 310 316 318 322 323 320 322 324 324 322 321 319 318 313 323 316 316 321 322 318 317 319 318 320 321 320 319 324 327 324 324 326 329 332 332 332 329 333 332 328 332 330 330 331 333 333 329 331 330 329 329 330 327 325 324 323 322 321 320 318 317 317 315 315 314 314 313 312 311 309 307 307 306 303 304 304 302 301
312 314 320 312 308 315 316 316 317 317 319 319 322 323 323 323 323 321 318 319 319 319 320 318 319 318 319 325 319 317 318 320 324 319 320 319 319 322 327 326 328 332 331 331 334 332 333 332 331 329 327 328 332 332 331 332 330 327 328 326 325 324 323 322 321 319 318 317 317 316 315 314 313 313 312 311 310 310 308 307 305 304 303 302 301 300
312 313 311 304 310 306 299 315 315 315 317 318 318 321 323 324 323 320 320 324 323 321 320 320 323 324 324 322 318 318 319 317 319 320 322 320 319 322 321 322 328 330 333 330 333 330 333 330 328 328 328 328 330 330 329 331 329 329 325 324 323 323 322 321 319 318 318 317 316 316 315 314 312 312 311 311 310 309 308 307 305 304 302 301 300 300
309 316 309 308 309 304 306 313 313 315 315 316 316 316 318 320 322 324 324 325 325 322 322 322 322 326 323 321 321 322 320 321 318 321 317 319 321 322 322 325 329 328 334 335 332 332 332 330 328 328 327 326 329 329 329 328 328 326 325 323 323 322 321 319 319 318 317 317 316 315 314 313 308 310 310 310 309 308 307 307 306 304 302 300 300 299
311 314 300 310 307 309 311 312 313 313 313 313 314 316 318 319 320 321 322 322 324 323 321 320 323 324 325 325 327 327 322 319 321 322 318 319 322 324 324 325 330 331 333 333 332 331 330 329 328 329 328 327 328 329 328 329 328 326 325 323 322 322 320 319 316 318 318 317 316 314 313 313 311 311 310 309 309 309 308 307 305 304 304 304 303 302
311 308 312 311 304 302 305 311 316 305 304 309 312 314 316 319 319 319 320 320 321 321 323 321 324 326 325 325 325 325 323 325 326 327 320 319 323 328 328 326 328 330 331 333 330 331 333 330 331 329 327 327 328 328 327 328 326 325 324 322 322 322 320 318 318 318 317 316 314 313 312 312 310 311 310 309 308 308 305 292 295 304 305 303 296 293
309 309 311 306 301 302 310 313 316 315 310 310 311 313 315 317 318 317 317 318 319 320 320 321 320 321 322 322 323 323 323 324 325 326 327 322 327 331 331 328 328 330 328 331 329 329 330 330 329 328 327 327 327 326 326 326 325 324 323 322 322 322 320 319 317 317 316 315 313 311 312 311 310 311 310 309 308 308 306 303 299 289 288 296 294 292
Wind_Speed
11 2 4 9 8 14 15 5 10 8 11 10 12 8 8 8 4 7 9 7 9 5 5 8 11 11 11 11 12 11 12 10 12 13 11 11 10 9 8 10 11 10 9 10 10 10 10 9 7 6 6 6 5 3 5 6 5 5 5 5 5 4 4 5 3 4 5 3 4 5 5 5 4 5 5 6 4 3 3 4 5 3 4 4 5 6
8 2 7 13 11 3 5 4 15 7 2 8 8 5 8 8 5 8 5 11 12 5 5 8 9 12 12 12 13 13 12 12 12 12 12 12 12 11 11 10 11 10 9 11 10 13 11 9 10 7 5 6 5 4 7 6 6 7 7 5 5 4 3 2 5 6 7 7 7 5 5 5 6 6 5 4 2 2 5 4 3 0 0 2 6 5
3 5 8 14 3 3 2 11 13 4 4 5 2 5 5 5 5 8 9 9 8 5 7 9 10 10 10 11 12 13 13 11 11 11 10 11 12 11 11 12 12 11 10 10 10 7 10 11 13 8 6 6 6 5 9 7 5 5 4 5 2 3 5 8 7 6 5 4 4 4 5 6 5 4 3 2 3 6 6 4 4 7 8 8 6 5
6 6 15 13 1 4 5 11 5 8 3 4 2 4 2 3 2 2 7 9 8 2 8 3 7 8 9 10 11 11 12 11 11 12 12 9 10 11 12 11 11 11 10 9 9 7 11 13 9 9 7 5 5 6 7 7 5 5 4 3 3 4 6 5 6 6 4 5 4 4 3 4 4 4 4 3 6 4 4 4 3 3 3 5 6 6
10 11 2 3 3 5 2 6 4 2 2 3 2 7 2 5 6 6 6 8 9 7 12 14 5 2 7 9 10 10 9 8 10 11 10 11 9 9 11 11 10 11 10 10 9 12 10 10 9 8 7 7 5 6 7 7 6 5 6 5 5 5 6 6 5 4 3 3 3 2 3 4 4 1 3 6 4 3 3 2 3 5 5 4 5 5
6 6 4 7 2 4 2 6 6 4 1 1 4 6 3 7 7 5 7 8 3 6 13 12 6 4 8 11 12 10 8 10 10 11 12 10 11 11 12 12 11 11 11 10 11 9 11 10 9 7 7 7 8 6 6 9 8 5 6 7 6 5 4 5 5 4 2 2 2 4 2 6 6 5 4 3 3 5 4 3 2 3 3 6 8 7
7 5 5 8 4 2 8 5 6 5 3 3 1 4 1 5 8 7 6 2 4 3 7 7 3 5 9 10 10 11 12 12 11 11 11 12 11 9 11 11 12 12 11 11 9 11 13 11 9 7 7 7 8 7 8 7 6 8 9 6 7 5 4 4 4 4 3 2 5 5 6 7 4 4 4 2 2 3 3 2 3 4 5 7 6 6
8 2 3 4 7 3 10 6 8 5 2 2 4 4 3 2 5 7 7 3 1 6 9 10 6 4 5 8 11 13 12 12 13 14 13 12 13 14 11 11 11 11 12 10 11 9 12 11 10 8 9 8 8 8 9 6 6 8 7 8 7 5 4 4 4 5 5 7 7 7 6 5 5 3 3 3 2 2 2 3 2 3 5 5 4 4
10 10 5 7 1 9 3 4 16 7 2 0 3 2 2 7 14 4 8 2 2 2 2 2 4 2 2 8 9 12 12 12 12 12 12 13 13 14 14 12 12 13 13 12 10 12 13 10 11 10 10 10 9 8 7 7 8 7 6 7 7 6 4 3 7 6 5 5 4 4 4 5 4 4 3 2 3 2 0 2 2 5 3 4 3 4
7 9 8 7 4 2 2 2 3 4 3 2 1 5 10 14 13 2 1 4 4 2 4 6 5 3 4 2 8 10 10 11 12 14 14 14 13 13 14 13 12 12 12 12 11 12 13 10 12 11 12 10 8 7 7 9 8 7 7 7 7 6 5 6 6 5 6 6 5 4 3 4 4 4 4 4 3 3 2 3 3 4 3 2 4 3
4 3 7 8 5 4 2 8 3 5 1 5 5 6 5 1 7 3 3 2 3 4 5 7 11 7 4 5 4 7 8 10 10 11 13 14 15 14 14 15 12 11 12 11 12 11 13 9 13 13 12 10 8 6 8 7 9 6 6 7 7 5 5 6 5 5 5 4 4 4 4 5 5 5 4 4 3 2 2 3 4 3 1 3 4 2
6 10 8 3 3 1 5 1 5 0 3 7 4 6 2 1 1 4 3 5 3 2 2 9 12 6 3 4 7 10 8 10 11 12 13 14 15 15 13 14 14 14 12 14 14 14 13 10 12 12 11 11 9 7 9 7 8 7 6 6 7 6 6 4 5 5 4 4 4 4 4 4 3 3 4 4 5 5 4 3 3 3 2 3 4 2
7 2 10 12 5 9 4 8 5 7 7 4 6 1 2 2 0 1 2 1 3 1 2 7 10 5 2 3 5 10 10 11 11 12 14 15 16 15 15 16 13 13 13 14 13 13 13 12 13 12 12 11 10 7 9 8 8 7 7 7 7 7 6 4 4 5 5 5 4 3 1 3 6 5 4 4 2 3 4 2 3 3 3 3 3 3
5 7 12 4 3 5 2 1 1 3 3 2 3 2 3 3 2 2 4 4 4 1 13 5 8 4 3 5 7 7 6 8 12 8 10 15 14 15 16 15 13 12 13 14 14 14 14 13 13 14 13 13 10 9 9 9 8 7 7 7 8 7 6 6 5 6 4 4 4 4 3 2 1 4 1 2 1 2 3 2 3 2 4 3 2 2
3 6 0 7 7 4 2 1 6 2 2 5 5 3 1 4 2 2 0 1 2 2 2 5 5 4 5 3 8 6 12 11 17 8 5 8 13 12 14 15 13 13 12 14 15 14 14 13 12 13 12 12 11 10 9 8 10 9 8 7 8 8 7 6 5 4 5 4 3 4 5 2 2 4 1 2 3 2 2 2 1 3 3 3 2 4
4 6 10 3 9 6 2 2 4 6 3 3 6 1 5 5 5 2 3 4 4 0 4 3 1 2 1 7 9 9 9 7 15 13 11 8 11 13 11 12 13 13 12 12 15 14 15 13 10 13 10 11 11 11 10 10 10 8 8 8 8 8 7 7 6 4 3 5 4 3 1 3 2 3 3 1 2 2 2 2 2 3 3 2 4 4
2 4 7 7 6 7 9 13 9 5 2 0 4 3 1 3 4 3 3 7 2 6 1 2 4 3 3 5 1 5 7 7 10 15 16 15 12 12 11 12 12 14 13 14 13 14 15 14 11 13 12 11 12 12 11 10 10 10 8 9 7 8 7 7 7 6 4 3 4 5 3 2 1 1 2 1 1 0 2 1 2 2 4 4 4 4
4 5 4 8 7 3 3 2 3 4 10 6 1 5 8 8 5 3 2 1 2 3 4 6 7 5 5 4 6 5 7 4 8 8 12 14 15 14 12 11 14 15 15 15 16 16 16 15 14 13 13 14 12 13 12 10 10 10 9 10 10 8 8 8 8 7 5 6 5 5 4 4 2 2 2 2 2 2 2 2 2 3 3 4 4 4
6 5 3 6 9 8 3 5 3 8 8 5 2 3 4 2 0 2 1 2 0 1 5 2 6 5 1 5 3 4 5 7 4 8 10 11 16 13 14 14 12 14 15 13 14 15 14 13 13 11 12 15 13 12 13 11 10 11 9 11 9 10 10 7 7 5 5 5 4 5 5 4 4 3 3 4 4 3 2 2 3 4 5 4 4 4
9 4 3 6 11 6 6 5 3 3 3 7 8 5 7 3 2 4 1 6 6 2 1 8 6 3 3 5 4 7 8 6 4 5 7 9 11 9 12 14 15 12 13 15 13 15 15 14 14 13 12 14 15 15 14 12 10 13 10 10 8 10 9 7 7 6 6 7 6 6 5 5 5 4 4 3 3 3 3 2 6 6 4 4 3 3
3 3 3 4 8 3 5 6 4 5 4 3 3 4 3 3 6 7 2 3 3 4 2 2 4 3 3 6 9 5 5 4 3 6 2 7 7 10 13 12 11 13 14 15 14 14 15 13 13 13 12 14 14 13 13 13 11 11 10 9 9 9 10 8 7 7 6 5 6 6 8 7 6 5 4 3 4 3 1 5 6 6 5 4 4 3
1 1 2 2 3 5 6 3 1 3 2 7 7 4 2 1 2 5 1 2 2 1 2 2 4 2 4 4 4 4 9 9 6 10 6 4 7 4 9 9 13 13 12 11 13 13 15 14 13 14 13 12 15 13 15 13 11 13 12 9 9 9 10 8 8 7 7 5 5 4 5 5 4 4 3 4 5 3 7 6 6 6 5 5 4 4
4 2 4 3 3 8 6 4 8 7 8 10 5 4 5 6 4 2 3 2 4 4 9 4 4 3 2 5 5 4 2 9 3 2 10 10 8 4 7 9 11 12 14 12 11 12 15 14 13 13 15 13 15 13 13 13 11 11 12 10 9 10 9 8 8 7 6 5 5 3 5 4 4 4 5 1 3 6 7 7 6 6 6 5 4 4
1 5 5 5 3 1 5 5 12 5 5 5 5 1 1 4 1 5 5 4 3 10 6 2 3 2 4 2 4 3 4 6 10 8 11 6 6 7 8 10 12 12 11 12 10 11 12 14 12 12 14 13 14 12 12 12 12 8 11 9 8 8 10 9 8 7 7 6 6 5 4 4 4 5 5 6 4 7 7 7 6 6 6 6 4 5
4 2 6 2 1 2 3 9 5 9 7 3 4 0 2 1 8 3 4 7 2 5 5 5 3 2 4 2 3 1 5 3 6 8 13 5 3 4 7 9 9 11 12 12 12 12 14 14 15 14 13 12 15 13 9 14 13 9 10 9 9 8 8 8 8 8 8 8 7 6 5 5 3 0 4 5 7 7 7 6 6 5 7 5 5 5
5 2 2 2 2 1 0 0 2 3 4 7 6 4 3 8 8 3 0 3 1 5 4 1 0 1 9 6 3 1 3 4 2 4 9 11 5 6 7 8 8 11 11 12 13 12 13 13 13 12 10 11 14 14 13 12 11 11 10 9 8 9 9 9 7 8 8 7 7 6 6 4 4 5 4 9 7 7 7 6 6 6 5 7 6 4
4 4 6 6 6 3 7 6 4 4 4 8 1 5 3 6 6 3 2 2 1 1 2 1 3 3 2 4 3 4 3 5 1 3 1 7 8 5 7 7 8 9 10 11 12 12 10 12 12 13 12 9 12 12 12 10 11 11 10 9 9 9 9 8 8 8 7 7 7 7 6 7 6 6 8 8 8 6 6 6 6 7 8 7 5 5
4 5 5 5 5 8 4 5 10 7 8 10 5 2 3 10 3 2 3 1 1 1 0 3 2 3 3 3 5 5 2 5 1 3 7 5 0 5 8 6 10 11 9 10 12 13 13 12 12 11 11 9 9 10 13 11 11 11 10 10 9 9 8 8 7 7 7 6 5 5 6 6 6 6 7 8 8 7 6 6 6 6 6 5 5 5
5 3 4 4 7 7 6 7 4 9 7 9 6 7 2 6 5 2 3 3 5 2 0 3 6 2 4 4 5 4 1 6 10 6 5 9 8 6 5 10 11 11 10 11 12 12 13 13 10 10 10 8 6 9 13 13 11 9 8 11 11 9 9 8 8 8 7 6 6 5 5 5 8 7 8 9 8 7 6 6 6 6 5 4 4 4
3 5 6 5 6 8 8 8 7 7 7 7 6 10 13 13 7 8 5 3 1 1 4 1 1 6 6 0 5 5 4 3 7 6 4 9 9 11 9 10 10 11 12 12 13 13 12 12 12 10 9 10 10 9 12 11 12 13 10 11 11 10 9 8 9 9 8 7 7 6 5 10 8 8 8 7 8 7 7 7 7 6 6 5 5 4
3 1 1 9 7 5 5 3 1 5 5 7 6 8 14 16 10 5 4 3 3 3 3 0 2 3 2 5 3 5 4 3 6 6 9 8 3 9 9 8 9 9 11 10 12 12 12 11 12 11 10 10 11 10 9 10 10 11 12 10 10 12 11 11 9 9 8 7 7 5 6 10 10 9 9 8 7 7 8 8 7 6 6 5 5 4
2 4 4 4 3 4 3 5 5 4 7 6 3 1 6 1 5 9 6 6 4 5 2 2 1 2 2 4 4 5 2 4 6 2 6 5 9 11 9 6 8 7 6 10 11 11 12 12 10 11 11 12 12 12 12 9 11 10 10 9 10 9 10 9 9 9 8 7 4 6 8 9 8 9 9 9 9 9 8 8 7 7 6 6 5 4
5 5 4 2 3 0 4 5 8 5 4 1 4 2 3 7 10 4 6 4 1 3 3 1 3 3 4 2 7 4 2 4 2 5 5 6 6 10 9 10 7 9 10 8 9 11 11 11 11 10 10 10 11 12 11 11 10 9 9 9 8 8 7 7 6 7 7 7 6 8 8 7 9 10 10 10 10 8 8 8 8 7 7 7 5 4
4 5 4 3 2 2 9 8 11 4 2 1 4 5 2 7 7 4 6 6 5 1 5 5 2 1 5 1 2 3 3 1 2 4 1 4 7 3 2 5 8 4 4 6 2 9 10 8 6 7 7 9 10 10 10 8 9 8 7 7 8 9 7 8 8 7 7 7 7 8 9 10 11 11 10 10 9 9 9 8 8 7 6 6 5 5
4 4 1 3 2 2 9 9 6 3 1 5 1 5 6 6 7 4 6 6 2 2 1 2 3 5 6 6 1 3 4 6 2 5 6 3 3 7 11 9 8 11 7 8 8 5 5 6 7 7 8 9 10 6 6 9 8 6 7 7 7 8 8 9 10 8 7 7 9 11 11 11 11 11 11 10 10 9 9 8 7 7 6 6 5 5
2 2 3 1 2 2 1 3 3 0 6 4 3 3 3 4 4 1 1 3 4 7 5 7 8 6 5 3 1 6 2 6 3 1 4 7 4 3 3 6 7 9 7 7 9 5 7 10 8 7 7 6 7 9 10 9 9 9 9 9 9 8 8 8 8 8 7 9 10 12 11 11 11 11 11 11 10 9 9 8 8 7 6 5 5 5
4 3 1 2 1 2 1 2 2 4 5 6 4 5 5 2 2 2 2 6 5 5 6 6 5 4 3 0 7 5 3 3 3 6 5 4 7 5 4 2 4 8 9 5 9 10 5 5 8 9 9 9 8 10 9 10 10 9 10 10 9 8 8 7 7 7 8 10 11 12 12 12 12 12 12 11 11 10 9 9 8 7 6 6 6 6
4 6 4 2 0 3 3 0 4 4 2 2 5 5 2 2 2 4 3 5 5 8 7 5 3 5 3 6 4 6 3 3 3 3 1 4 4 2 4 5 4 4 10 8 7 7 7 7 5 9 11 9 7 6 7 5 5 5 5 6 6 5 6 8 8 8 10 10 11 11 11 12 12 12 12 11 11 10 9 8 6 7 6 6 6 6
5 1 2 3 2 3 3 2 1 3 4 6 4 5 4 4 0 5 3 5 5 6 6 5 5 4 6 5 5 4 3 3 1 2 3 4 1 2 5 6 1 5 9 8 12 9 10 9 9 9 8 7 7 6 4 6 6 7 7 5 6 7 8 8 8 10 11 11 12 12 11 11 12 12 11 12 10 9 10 8 7 6 5 5 5 5
6 6 3 4 3 4 4 1 2 3 3 5 6 6 8 6 2 3 3 2 4 6 4 3 7 7 5 2 1 6 6 6 4 5 1 4 1 5 4 8 3 6 7 9 9 6 8 7 7 8 7 6 5 5 4 5 6 6 7 8 8 8 8 8 8 9 10 11 11 10 10 10 11 10 11 11 10 9 8 7 7 7 6 6 5 5
6 4 3 4 4 2 1 2 5 4 5 4 6 5 7 4 2 3 2 4 4 5 4 4 7 6 1 4 6 5 4 4 4 2 3 3 7 6 6 2 8 6 9 7 11 7 8 7 6 8 10 8 6 6 7 7 4 4 6 6 6 7 6 7 8 11 11 10 10 11 12 10 10 11 9 9 10 9 8 7 7 7 6 6 5 5
6 5 4 4 5 4 3 4 3 4 5 5 4 4 4 3 1 1 5 2 4 6 5 4 5 2 4 8 4 4 3 6 6 4 4 1 6 3 3 3 6 9 10 8 13 9 8 9 7 5 8 8 9 9 7 6 5 7 6 6 7 5 5 9 11 10 10 11 12 11 11 10 9 9 8 10 9 8 8 7 7 6 6 5 5 6
4 4 4 5 4 4 3 3 4 3 1 3 4 5 7 2 4 4 3 3 2 7 5 5 4 2 3 3 7 3 3 6 2 6 6 4 2 2 4 4 2 8 8 7 6 7 7 6 8 9 7 6 7 6 6 5 6 5 3 3 2 2 7 10 10 11 11 11 11 10 10 9 10 9 8 9 9 9 8 7 7 6 6 5 5 6
6 5 3 4 1 4 3 1 3 4 6 6 1 2 5 5 4 4 4 3 3 4 5 5 4 2 2 5 6 6 3 3 4 2 2 1 3 1 2 2 1 4 5 5 4 4 5 4 3 3 3 4 3 4 4 3 4 3 3 3 3 6 8 9 10 11 10 9 10 10 9 10 10 9 8 9 9 8 8 8 7 6 6 5 6 5
5 3 4 4 8 4 3 5 6 7 8 9 8 7 7 6 6 5 3 3 2 4 2 5 5 3 4 4 2 2 6 4 4 3 2 2 3 2 2 4 3 3 2 3 4 4 4 3 7 7 5 4 3 3 4 4 4 5 4 5 7 8 9 9 10 9 9 10 10 9 10 9 9 8 9 9 9 8 8 8 7 7 6 6 6 6
2 6 3 5 7 11 10 8 7 8 9 9 8 9 9 9 8 6 8 8 7 5 4 4 3 5 2 4 8 4 6 3 3 4 4 2 2 5 1 4 3 3 4 4 3 5 3 7 8 7 7 6 4 4 4 4 6 6 6 7 7 9 9 10 10 10 10 10 9 10 11 10 10 10 9 8 7 7 7 8 8 6 6 6 6 6
9 11 6 2 10 6 3 5 7 9 9 9 9 9 10 9 8 7 7 6 5 3 5 3 5 6 6 5 2 1 5 0 1 3 6 3 3 3 2 1 1 1 3 5 6 4 4 8 7 7 7 7 5 5 5 6 6 6 8 8 8 8 9 9 10 9 9 9 9 9 9 9 8 8 8 8 7 7 7 7 7 7 7 7 7 7
5 12 6 6 9 3 8 6 9 10 11 11 8 8 9 8 8 7 4 5 4 4 5 4 1 3 4 3 3 3 2 3 1 2 5 5 4 3 3 3 3 2 2 4 6 5 6 7 8 8 8 7 6 6 7 7 8 8 8 9 9 9 9 9 9 9 9 10 9 8 9 8 10 10 8 8 8 7 7 7 8 7 7 8 8 8
6 8 3 2 3 9 11 7 8 13 13 11 11 10 8 8 7 8 8 8 8 6 5 6 7 7 6 6 6 5 7 5 3 3 5 3 5 4 4 3 3 3 2 5 5 4 6 6 8 8 7 7 6 7 7 8 8 8 9 9 9 10 10 9 9 9 10 9 9 8 8 7 9 8 8 7 8 7 8 9 9 7 6 7 7 7
5 2 7 3 5 3 3 3 6 1 3 8 10 10 9 9 9 9 8 9 9 9 7 6 3 6 9 9 8 6 4 6 7 3 2 4 7 6 4 3 3 4 4 5 5 5 5 6 8 8 7 7 6 7 8 9 9 9 9 9 9 10 9 10 9 9 9 9 8 8 8 7 8 8 8 8 8 8 3 8 6 2 6 7 3 7
3 2 4 4 1 3 4 6 6 5 9 8 8 9 9 8 8 9 10 9 10 9 9 9 8 8 8 9 8 7 7 7 7 6 5 5 4 3 3 2 3 4 5 6 6 6 5 5 8 7 7 7 7 8 8 9 9 10 9 9 9 10 10 11 9 8 8 9 8 10 9 8 9 9 8 8 8 7 7 5 4 7 9 3 12 10
Wind_Direction
115 103 237 248 224 191 217 236 68 99 131 122 105 111 241 184 236 155 169 138 123 164 176 152 140 147 157 161 165 172 174 190 170 165 162 163 164 171 157 160 156 158 150 158 147 119 120 113 106 91 83 89 87 115 84 86 98 96 106 93 73 90 35 18 38 48 25 25 68 41 50 85 80 87 87 78 68 64 58 76 76 78 120 117 89 71
47 122 231 235 271 9 24 54 73 32 163 124 123 162 181 126 186 155 185 147 141 152 160 150 152 149 158 165 170 170 173 191 175 170 168 170 164 158 167 162 157 156 162 161 143 136 135 137 123 112 118 109 87 69 88 79 74 78 84 96 87 61 61 60 86 61 37 27 22 33 63 52 42 39 56 70 102 91 47 39 40 146 183 103 110 106
114 249 271 280 353 322 159 88 98 115 43 86 86 179 174 159 126 136 148 137 149 184 156 182 153 149 157 160 161 173 181 185 177 181 170 176 159 150 168 158 162 166 153 166 112 136 155 139 112 102 97 105 113 106 98 96 92 106 99 80 107 117 74 43 41 58 58 54 42 43 57 90 79 70 67 87 75 66 57 17 19 28 32 17 41 59
265 236 245 227 192 266 206 119 134 129 93 62 221 156 261 83 123 223 150 156 146 172 118 72 154 142 148 155 170 185 187 176 178 177 172 178 172 162 161 159 164 161 147 135 151 134 79 92 108 108 100 90 119 127 115 109 107 95 108 102 66 91 94 92 81 78 67 68 69 61 31 85 93 125 140 138 82 86 92 86 61 61 52 44 40 31
208 228 10 257 177 290 63 107 94 42 331 198 184 259 139 159 146 192 149 146 166 164 128 152 105 73 163 171 172 189 182 164 178 172 174 176 168 175 155 160 168 154 149 155 159 112 125 111 111 115 128 151 129 111 131 146 140 99 96 105 98 69 84 85 89 102 117 121 111 75 94 95 105 115 81 68 74 86 85 83 74 65 29 34 49 37
327 43 322 251 285 209 193 107 98 153 113 334 318 195 128 132 144 146 120 172 149 167 150 155 146 179 205 182 178 159 184 183 175 179 184 175 177 172 166 167 163 159 159 179 152 159 124 120 108 128 148 112 115 111 65 74 85 140 130 111 105 94 86 102 112 104 90 114 156 141 118 67 42 41 51 81 78 66 53 58 31 44 79 55 32 21
235 177 260 332 334 313 72 89 134 199 103 250 342 38 336 126 125 104 132 187 156 203 175 185 253 133 173 186 177 172 175 177 191 185 193 180 170 183 177 172 177 168 170 169 164 159 128 129 130 131 113 125 119 115 120 126 157 137 116 112 107 106 102 114 115 123 149 112 95 87 101 100 80 60 35 59 69 89 125 153 65 45 37 51 45 20
283 160 270 189 248 226 108 146 185 184 82 18 245 272 73 308 104 151 122 3 184 181 159 154 207 151 176 190 182 167 183 178 184 191 187 188 185 177 189 181 179 174 167 171 179 144 128 134 141 135 121 118 123 132 139 146 113 98 105 118 113 120 122 119 124 102 63 71 63 70 73 109 125 111 95 80 84 49 39 31 49 96 57 51 51 24
257 273 232 221 30 44 237 215 174 200 23 157 223 252 67 16 52 22 73 309 284 299 154 124 146 51 193 154 174 177 182 181 181 195 189 191 192 174 175 188 187 172 169 179 178 150 138 151 139 140 138 127 141 141 136 127 117 122 125 105 108 118 137 123 90 100 112 105 101 100 121 118 124 137 145 109 87 82 312 95 45 54 66 77 60 57
246 287 14 311 42 302 356 340 54 109 58 242 106 40 47 65 76 20 131 91 279 218 222 203 208 179 195 188 171 186 191 192 187 189 192 195 193 194 171 182 196 168 172 181 160 153 142 150 147 144 134 145 133 138 144 121 126 122 111 119 123 121 114 103 110 113 105 113 136 147 160 122 124 134 136 131 168 178 200 119 76 59 15 78 62 55
12 172 345 297 15 38 26 59 349 45 122 64 45 85 112 213 104 86 109 161 19 283 209 188 199 211 167 193 181 192 192 196 185 188 189 187 191 193 172 168 192 167 183 158 157 141 146 171 132 144 141 141 138 161 131 131 128 127 129 127 130 126 109 125 127 133 132 139 124 139 153 151 149 148 153 152 157 162 134 95 101 120 170 68 69 52
357 21 324 90 311 313 336 201 132 255 51 76 36 2 317 30 111 157 145 193 226 199 250 174 202 139 196 182 199 219 255 204 188 194 182 188 185 187 172 169 182 179 179 161 162 153 156 155 138 144 146 143 149 168 131 151 133 141 140 139 131 139 135 127 141 129 149 136 144 147 174 156 115 135 130 137 166 188 112 127 123 137 113 90 95 44
315 127 285 276 139 310 204 73 327 8 4 77 74 351 348 335 63 154 155 153 225 252 48 172 132 124 28 68 179 209 206 249 204 190 181 186 186 176 174 168 185 174 183 158 161 156 159 161 153 149 150 150 153 172 149 150 140 148 152 147 147 143 140 151 140 142 143 157 162 145 137 136 168 185 151 164 127 70 110 101 132 90 68 76 65 59
311 309 293 299 254 170 320 192 165 20 299 170 77 337 355 2 21 4 32 356 330 6 54 287 71 91 266 274 234 203 245 186 202 188 190 178 178 178 170 173 181 169 176 166 160 166 162 167 165 154 155 156 161 165 164 147 149 155 158 160 154 149 158 155 179 156 179 130 127 154 165 140 262 80 1 138 76 130 101 121 70 60 78 64 82 88
336 288 192 13 350 327 171 257 162 165 297 77 125 116 224 280 10 359 213 188 298 166 225 330 88 136 188 198 184 223 180 189 173 169 191 168 164 153 168 168 171 157 184 171 167 166 168 167 172 148 156 156 162 166 169 156 160 160 165 168 162 159 162 167 176 173 169 149 187 187 155 206 197 119 40 16 115 14 60 56 122 102 90 67 61 85
239 270 278 220 175 230 291 26 144 163 154 97 117 298 163 203 199 182 273 334 132 179 339 203 71 157 253 155 191 204 194 148 152 166 163 171 170 159 171 166 164 150 177 163 161 167 162 167 167 144 158 159 163 171 172 165 162 161 170 175 173 163 170 169 159 199 189 154 157 265 229 194 129 133 126 149 55 86 40 24 357 65 87 93 75 58
199 257 265 259 261 261 139 204 174 210 257 269 183 193 198 259 235 150 275 263 347 58 181 130 138 179 136 208 103 259 170 148 155 155 155 172 166 157 157 170 154 143 185 162 163 160 161 170 165 155 161 164 165 173 180 165 172 168 169 177 173 162 177 164 171 179 192 177 168 184 216 283 24 53 119 81 113 68 155 168 78 90 94 91 102 107
187 286 176 244 238 207 19 333 30 153 126 140 291 225 238 236 319 277 263 279 263 156 153 161 158 159 206 108 202 254 101 330 242 175 157 148 160 156 182 173 154 162 159 164 159 160 167 170 167 165 166 168 166 174 182 175 167 163 173 178 176 167 181 179 168 186 181 180 190 183 195 188 185 188 180 181 211 199 173 173 176 113 116 112 103 95
214 237 203 279 277 223 150 239 214 137 154 240 250 155 241 162 249 70 267 286 33 58 99 264 81 57 76 134 176 138 345 209 225 147 144 155 163 168 168 158 166 170 144 154 167 159 167 168 169 169 170 168 168 176 176 186 177 166 188 180 183 170 187 177 167 188 179 183 178 188 197 186 188 202 187 184 197 185 197 210 123 103 92 97 106 119
205 250 193 244 263 170 193 177 226 129 193 246 189 205 306 24 186 273 282 308 331 346 103 120 150 162 224 96 94 138 208 144 241 161 181 141 159 164 164 164 177 155 142 155 162 159 168 169 171 170 172 170 171 179 174 182 190 164 192 179 187 170 177 171 181 176 189 183 196 189 190 184 190 203 221 185 174 170 195 170 109 115 116 99 96 94
124 311 301 121 253 157 229 185 189 236 242 280 345 10 326 294 8 328 322 313 27 329 354 147 127 74 82 127 149 182 146 314 180 104 227 150 160 160 167 168 165 158 153 167 166 162 161 162 172 169 176 177 170 179 173 177 202 160 190 176 181 167 164 176 182 179 192 196 206 189 169 189 181 196 229 169 158 180 163 87 110 110 113 109 100 105
81 300 305 294 262 327 338 334 330 296 132 173 213 178 146 222 295 283 153 39 264 1 274 343 86 125 63 46 0 162 144 175 242 145 130 34 168 159 161 172 159 164 145 163 155 164 158 163 169 172 186 181 165 179 176 171 199 175 183 191 187 164 167 177 184 189 189 190 212 194 162 170 182 175 224 202 151 156 107 111 110 115 115 118 123 118
325 245 213 256 141 233 299 310 261 257 203 204 263 123 210 189 230 8 293 358 302 204 257 116 146 27 46 359 320 50 320 128 223 78 132 179 132 221 152 168 146 147 153 150 154 161 152 163 168 177 189 186 167 174 170 166 201 174 176 191 187 169 167 179 188 189 183 184 210 193 163 179 176 179 201 193 124 120 118 118 121 121 121 121 116 105
33 250 220 252 10 76 156 254 257 223 294 287 254 61 23 82 32 221 254 356 318 19 359 356 72 136 27 279 62 313 338 108 156 129 134 172 182 166 178 155 155 157 142 157 155 136 146 157 166 185 190 184 166 168 171 160 189 193 170 187 185 168 169 180 187 185 187 185 198 195 192 176 167 186 218 162 127 119 119 122 126 133 128 127 115 110
255 52 305 298 200 196 344 282 213 356 341 330 335 188 353 353 248 297 333 7 337 22 358 44 57 332 110 256 62 182 173 136 126 135 121 202 177 154 166 162 150 144 146 158 144 143 151 162 171 189 189 192 161 165 178 164 178 201 165 185 185 181 178 185 182 193 192 191 189 191 189 181 160 110 244 120 118 124 126 128 129 127 125 122 123 118
215 175 244 277 294 324 207 253 304 293 275 323 292 5 271 246 251 221 8 175 80 327 17 41 117 342 36 7 352 323 3 102 50 118 148 165 128 172 157 155 145 151 161 155 146 151 155 171 179 192 176 196 161 164 183 164 177 185 181 184 179 179 177 185 187 197 197 186 185 184 190 159 143 202 183 119 127 130 131 130 125 128 132 132 128 134
240 157 193 232 273 170 194 219 168 210 247 267 354 292 222 264 311 27 274 12 90 328 317 64 4 335 132 187 31 346 294 74 317 150 226 122 159 173 138 140 153 144 155 161 147 154 171 175 187 188 173 213 156 164 175 174 175 185 181 181 181 180 179 183 190 195 199 188 179 186 186 164 181 208 140 127 128 128 134 137 141 141 134 131 125 118
259 258 240 274 271 267 262 209 176 199 229 223 231 76 315 300 305 349 307 161 176 296 249 359 133 302 13 14 150 176 83 116 177 335 129 100 107 203 134 161 151 157 163 164 165 162 176 177 189 183 174 205 167 160 162 179 181 187 181 174 181 185 177 182 191 199 196 194 181 180 181 175 175 113 122 127 129 140 141 141 137 120 120 130 132 133
298 292 273 177 253 282 289 302 209 195 227 269 245 155 152 267 275 274 232 236 188 288 169 234 256 284 330 352 85 79 94 135 159 214 116 170 179 126 168 169 164 161 169 189 174 167 180 179 183 179 176 188 183 155 164 179 185 191 180 176 180 186 181 179 186 200 202 188 190 194 180 147 100 135 128 135 138 137 142 129 117 126 128 129 122 109
318 268 296 228 243 232 238 222 204 231 241 237 239 177 193 214 212 197 230 198 260 204 332 56 65 13 63 292 86 72 27 281 119 166 151 168 190 160 179 179 180 179 178 189 179 176 179 182 182 184 179 177 191 183 179 178 185 191 195 182 178 184 183 187 184 197 198 196 195 187 165 117 129 146 132 133 140 141 129 128 134 132 135 129 119 120
296 306 253 288 286 266 217 199 26 281 264 261 23 331 12 351 306 5 25 51 116 257 226 162 320 99 20 326 9 93 327 293 127 144 160 139 215 146 179 190 187 191 181 187 178 170 179 190 183 184 187 181 184 185 198 192 190 194 197 199 187 183 187 188 186 190 196 200 200 167 149 141 156 147 148 143 142 137 141 142 139 143 136 126 119 114
290 276 253 238 255 261 261 206 200 261 283 287 283 107 104 281 311 43 338 334 0 51 354 287 64 342 49 283 206 134 159 260 133 173 129 168 184 139 130 221 206 177 199 185 180 181 186 186 182 184 191 190 190 193 193 201 201 200 203 195 199 198 191 189 183 186 186 205 195 165 156 171 163 146 137 148 149 152 146 141 147 138 127 120 124 133
195 249 245 271 242 282 84 308 305 239 253 269 36 343 66 40 316 168 202 131 238 92 223 78 100 232 191 208 310 119 356 116 233 151 158 178 187 145 167 188 196 159 190 202 188 183 187 193 193 189 182 189 201 200 197 198 204 202 206 198 199 207 194 185 190 182 184 197 199 174 164 151 133 143 149 154 156 148 146 151 142 136 136 139 134 131
306 281 293 62 285 83 23 352 297 263 231 5 280 311 67 164 214 85 356 317 31 207 351 17 321 37 335 34 109 358 161 131 181 140 115 113 101 137 295 234 173 137 198 142 209 208 180 175 182 175 185 195 198 202 202 203 208 201 199 206 193 206 190 198 201 192 183 193 185 143 142 146 151 153 155 154 148 148 153 151 142 140 135 129 140 145
201 252 238 166 257 125 158 209 248 263 247 172 252 39 2 350 3 50 181 148 182 171 267 270 315 23 18 322 208 174 51 118 59 124 154 187 138 146 176 212 145 164 192 160 188 203 166 161 169 169 176 194 204 196 196 200 207 202 214 208 210 203 197 199 208 185 175 185 168 150 156 158 154 155 156 151 149 155 154 147 140 141 135 148 149 143
262 216 282 193 259 93 238 209 247 87 109 201 212 110 39 303 30 188 156 68 90 21 25 344 13 333 9 3 9 85 93 58 102 308 138 159 147 192 193 159 174 161 184 168 165 200 176 164 162 163 177 181 186 193 196 207 197 199 200 204 208 200 195 196 197 178 171 163 153 157 160 157 155 155 150 151 155 156 152 143 149 145 145 146 143 142
208 296 297 282 77 264 257 219 151 114 151 181 183 194 189 201 164 214 137 109 63 71 0 5 328 17 16 77 54 87 73 95 239 103 0 129 147 180 174 233 179 174 153 178 157 145 155 143 174 176 172 178 205 198 193 202 199 198 192 196 201 195 188 191 184 173 161 163 158 161 162 158 157 153 155 156 158 156 149 151 149 148 149 148 154 153
139 221 71 11 227 279 303 306 150 154 144 149 76 76 61 94 51 80 336 104 1 21 15 352 13 78 68 73 81 73 127 219 107 100 230 73 102 203 172 194 162 172 142 161 127 150 158 167 203 154 170 173 194 209 185 197 159 186 192 185 188 181 191 194 194 170 163 163 160 163 161 157 156 156 158 159 160 152 149 150 148 148 156 158 154 155
168 249 212 239 262 233 238 265 204 178 90 116 115 91 83 114 281 73 37 44 17 13 16 321 82 76 80 81 78 207 128 51 78 134 104 85 241 138 209 100 156 157 149 168 157 184 177 162 205 157 151 153 186 220 178 182 185 196 204 194 191 195 201 199 189 172 166 162 164 162 158 155 157 159 159 160 152 147 152 154 151 149 155 152 155 153
207 186 210 232 263 249 257 257 270 56 137 136 156 170 156 120 136 226 211 103 22 29 1 328 77 70 62 62 237 31 21 145 156 101 135 117 301 86 295 133 157 127 159 164 146 159 140 143 172 139 153 173 196 209 214 197 204 197 201 208 199 208 201 192 186 168 153 160 159 157 150 153 157 158 159 153 142 149 151 149 145 151 158 157 165 157
199 227 196 245 238 214 161 267 92 125 89 67 74 63 62 44 116 220 126 66 60 57 4 19 95 92 124 84 32 75 70 74 98 96 350 90 146 139 312 36 156 203 139 150 124 133 140 155 191 184 173 182 185 201 218 220 224 233 207 219 220 211 205 165 151 145 162 158 154 151 154 155 157 155 152 142 144 146 145 147 149 154 160 169 163 165
203 208 211 242 248 246 219 243 128 75 19 65 75 53 56 167 210 108 81 126 110 75 76 39 70 36 46 36 71 83 76 43 52 84 148 29 46 30 131 15 12 45 35 101 139 152 153 168 174 207 201 178 181 197 210 205 214 223 228 220 225 203 160 138 138 149 155 152 153 152 153 152 148 151 137 140 144 146 146 148 150 160 159 177 164 160
232 207 218 202 221 254 243 252 160 167 138 236 129 132 89 132 65 96 134 106 142 100 67 68 85 71 322 165 127 108 99 81 33 93 49 49 341 95 8 24 7 90 106 130 153 152 152 163 174 194 217 186 179 187 208 206 208 210 193 194 183 139 135 132 143 146 147 149 150 147 147 146 147 140 143 145 147 148 148 149 155 162 169 179 152 151
162 228 201 230 234 246 204 204 42 65 79 37 345 92 73 45 343 353 338 124 69 113 124 112 77 55 36 17 57 93 62 134 176 27 357 168 127 7 120 240 348 93 132 163 188 163 163 207 183 109 88 87 114 171 170 152 142 149 142 153 108 101 110 127 134 139 143 143 142 141 142 144 142 142 144 145 149 151 148 155 158 165 177 159 149 158
32 53 38 44 11 9 90 105 116 89 75 53 50 73 57 44 10 342 350 357 58 85 15 105 93 70 61 123 165 181 118 36 58 109 303 28 129 183 235 190 180 153 195 189 201 134 163 186 106 118 121 114 121 107 120 136 146 129 148 116 110 120 126 129 135 138 139 139 139 140 146 149 149 148 148 153 155 153 156 158 162 170 171 155 166 172
56 24 31 99 97 87 61 62 83 74 74 81 63 46 47 40 27 8 14 355 14 32 39 47 68 97 72 47 56 330 98 123 131 114 119 149 295 133 37 328 164 158 182 182 133 125 169 116 123 135 133 135 127 116 131 141 137 150 124 120 127 135 141 143 138 137 141 142 143 148 153 153 153 153 154 156 161 158 162 163 170 174 168 169 182 184
40 18 323 228 134 115 91 76 62 68 59 66 68 58 51 42 40 22 15 7 327 344 45 43 29 349 27 331 82 46 98 273 113 163 161 119 112 98 129 192 57 216 216 166 135 162 143 130 143 142 144 143 144 143 146 135 145 135 129 140 145 151 148 141 136 139 141 141 148 152 157 153 156 154 158 163 162 167 167 171 178 178 173 177 190 194
349 341 307 52 53 65 112 101 94 82 72 52 44 44 40 40 48 43 36 18 30 24 318 17 100 217 241 263 80 293 4 110 122 16 342 119 78 87 106 139 134 198 224 136 138 190 138 147 149 152 155 153 156 152 144 148 147 144 150 152 160 153 144 138 146 149 149 153 155 160 160 162 155 157 163 171 170 173 176 178 187 186 182 186 192 196
312 305 51 306 136 100 117 109 107 107 82 64 54 43 35 31 40 40 36 41 33 73 67 11 335 336 15 21 349 12 345 335 341 56 325 35 126 130 115 100 146 165 182 145 152 205 160 163 155 160 163 160 164 150 151 148 147 154 159 165 160 150 145 148 151 154 154 159 163 164 166 162 163 166 170 172 178 185 187 186 191 188 185 194 199 203
306 30 344 235 114 137 92 64 360 219 80 62 49 39 32 29 41 41 37 47 45 42 54 94 106 50 51 35 22 14 14 348 5 36 323 7 51 64 66 106 143 162 170 146 159 208 170 173 153 165 169 168 166 158 157 150 153 161 170 166 157 146 149 151 160 160 163 169 169 165 169 167 171 177 176 177 181 180 105 13 57 111 190 186 131 129
58 17 10 39 153 130 68 51 3 72 89 68 58 48 36 26 41 45 36 39 48 47 45 44 44 57 54 51 35 31 28 17 16 12 357 42 64 58 89 102 154 158 181 159 169 200 195 182 162 170 175 172 168 170 161 152 160 169 173 163 156 155 157 162 167 168 172 176 178 173 177 172 176 183 182 182 185 185 160 166 108 55 30 103 164 146